{"data":{"norad_id":53506,"epoch":"2026-05-25T04:00:03.998880Z","epoch_age_seconds":60559,"freshness":"FRESH","line1":"1 53506U 22099AT  26145.16671295  .00593749  00000+0  11673-1 0  9991","line2":"2 53506  97.6031 268.4434 0001463  74.6427 131.5684 15.45008242  5871","mean_motion":15.45008242,"eccentricity":0.0001463,"inclination_deg":97.6031,"raan_deg":268.4434,"arg_perigee_deg":74.6427,"mean_anomaly_deg":131.5684,"bstar":0.011673,"rev_number":587,"period_min":93.203386289767,"perigee_km":430.3576262525,"apogee_km":432.35008327661,"semimajor_km":6809.4908547646,"source":"CELESTRAK","updated_at":"2026-05-25T13:38:17.438268Z"}}